| time (UTC) | temp F | wind direction | speed MPH | gust MPH | rain 1hr in | rain 24hr in | rain mn in | humidity % | barometer mb |
| 20260906213902 | 69 | 77 | 0.0 | 0.0 | 0.00 | 0.00 | 0.00 | 93 | 1015.4 |
| 20260906212902 | 69 | 77 | 0.0 | 0.0 | 0.00 | 0.00 | 0.00 | 93 | 1015.4 |
| 20260906211902 | 69 | 77 | 0.0 | 0.0 | 0.00 | 0.00 | 0.00 | 93 | 1015.4 |
| 20260906210902 | 69 | 77 | 0.0 | 0.0 | 0.00 | 0.00 | 0.00 | 93 | 1015.4 |
| 20260906205902 | 69 | 77 | 0.0 | 0.0 | 0.00 | 0.00 | 0.00 | 93 | 1015.4 |
| 20260906204932 | 69 | 77 | 0.0 | 0.0 | 0.00 | 0.00 | 0.00 | 93 | 1015.4 |
| 20260906203901 | 69 | 77 | 0.0 | 0.0 | 0.00 | 0.00 | 0.00 | 93 | 1015.4 |
| 20260906202902 | 69 | 77 | 0.0 | 0.0 | 0.00 | 0.00 | 0.00 | 93 | 1015.4 |
| 20260906201902 | 69 | 77 | 0.0 | 0.0 | 0.00 | 0.00 | 0.00 | 93 | 1015.4 |
| 20260906200902 | 69 | 77 | 0.0 | 0.0 | 0.00 | 0.00 | 0.00 | 93 | 1015.4 |
| 20260906195901 | 69 | 77 | 0.0 | 0.0 | 0.00 | 0.00 | 0.00 | 93 | 1015.4 |
| 20260906194902 | 69 | 77 | 0.0 | 0.0 | 0.00 | 0.00 | 0.00 | 93 | 1015.4 |
| 20260906193902 | 69 | 77 | 0.0 | 0.0 | 0.00 | 0.00 | 0.00 | 93 | 1015.4 |
| 20260906192902 | 69 | 77 | 0.0 | 0.0 | 0.00 | 0.00 | 0.00 | 93 | 1015.4 |
| 20260906191902 | 69 | 77 | 0.0 | 0.0 | 0.00 | 0.00 | 0.00 | 93 | 1015.4 |
| 20260906190902 | 69 | 77 | 0.0 | 0.0 | 0.00 | 0.00 | 0.00 | 93 | 1015.4 |
| 20260906185902 | 69 | 77 | 0.0 | 0.0 | 0.00 | 0.00 | 0.00 | 93 | 1015.4 |
| 20260906185002 | 69 | 77 | 0.0 | 0.0 | 0.00 | 0.00 | 0.00 | 93 | 1015.4 |
| 20260906183901 | 69 | 77 | 0.0 | 0.0 | 0.00 | 0.00 | 0.00 | 93 | 1015.4 |
| 20260906182902 | 69 | 77 | 0.0 | 0.0 | 0.00 | 0.00 | 0.00 | 93 | 1015.4 |
| 20260906181902 | 69 | 77 | 0.0 | 0.0 | 0.00 | 0.00 | 0.00 | 93 | 1015.4 |
| 20260906180902 | 69 | 77 | 0.0 | 0.0 | 0.00 | 0.00 | 0.00 | 93 | 1015.4 |
| 20260906175902 | 69 | 77 | 0.0 | 0.0 | 0.00 | 0.00 | 0.00 | 93 | 1015.4 |
| 20260906174902 | 69 | 77 | 0.0 | 0.0 | 0.00 | 0.00 | 0.00 | 93 | 1015.4 |
| 20260906173901 | 69 | 77 | 0.0 | 0.0 | 0.00 | 0.00 | 0.00 | 93 | 1015.4 |
| 20260906172902 | 69 | 77 | 0.0 | 0.0 | 0.00 | 0.00 | 0.00 | 93 | 1015.4 |
| 20260906171932 | 69 | 77 | 0.0 | 0.0 | 0.00 | 0.00 | 0.00 | 93 | 1015.4 |
| 20260906170932 | 69 | 77 | 0.0 | 0.0 | 0.00 | 0.00 | 0.00 | 93 | 1015.4 |
| 20260906165902 | 69 | 77 | 0.0 | 0.0 | 0.00 | 0.00 | 0.00 | 93 | 1015.4 |
| 20260906164902 | 69 | 77 | 0.0 | 0.0 | 0.00 | 0.00 | 0.00 | 93 | 1015.4 |
| 20260906163902 | 69 | 77 | 0.0 | 0.0 | 0.00 | 0.00 | 0.00 | 93 | 1015.4 |
| 20260906162901 | 69 | 77 | 0.0 | 0.0 | 0.00 | 0.00 | 0.00 | 93 | 1015.4 |
| 20260906161902 | 69 | 77 | 0.0 | 0.0 | 0.00 | 0.00 | 0.00 | 93 | 1015.4 |
| 20260906160902 | 69 | 77 | 0.0 | 0.0 | 0.00 | 0.00 | 0.00 | 93 | 1015.4 |
| 20260906155902 | 69 | 77 | 0.0 | 0.0 | 0.00 | 0.00 | 0.00 | 93 | 1015.4 |
| 20260906154902 | 69 | 77 | 0.0 | 0.0 | 0.00 | 0.00 | 0.00 | 93 | 1015.4 |
| 20260906153932 | 69 | 77 | 0.0 | 0.0 | 0.00 | 0.00 | 0.00 | 93 | 1015.4 |
| 20260906152901 | 69 | 77 | 0.0 | 0.0 | 0.00 | 0.00 | 0.00 | 93 | 1015.4 |
| 20260906151902 | 69 | 77 | 0.0 | 0.0 | 0.00 | 0.00 | 0.00 | 93 | 1015.4 |
| 20260906150902 | 69 | 77 | 0.0 | 0.0 | 0.00 | 0.00 | 0.00 | 93 | 1015.4 |
| 20260906145932 | 69 | 77 | 0.0 | 0.0 | 0.00 | 0.00 | 0.00 | 93 | 1015.4 |
| 20260906144902 | 69 | 77 | 0.0 | 0.0 | 0.00 | 0.00 | 0.00 | 93 | 1015.4 |
| 20260906143902 | 69 | 77 | 0.0 | 0.0 | 0.00 | 0.00 | 0.00 | 93 | 1015.4 |
| 20260906142901 | 69 | 77 | 0.0 | 0.0 | 0.00 | 0.00 | 0.00 | 93 | 1015.4 |
| 20260906141932 | 69 | 77 | 0.0 | 0.0 | 0.00 | 0.00 | 0.00 | 93 | 1015.4 |
| 20260906140902 | 69 | 77 | 0.0 | 0.0 | 0.00 | 0.00 | 0.00 | 93 | 1015.4 |
| 20260906135932 | 69 | 77 | 0.0 | 0.0 | 0.00 | 0.00 | 0.00 | 93 | 1015.4 |
| 20260906134902 | 69 | 77 | 0.0 | 0.0 | 0.00 | 0.00 | 0.00 | 93 | 1015.4 |
| 20260906133902 | 69 | 77 | 0.0 | 0.0 | 0.00 | 0.00 | 0.00 | 93 | 1015.4 |
| 20260906132901 | 69 | 77 | 0.0 | 0.0 | 0.00 | 0.00 | 0.00 | 93 | 1015.4 |
| 20260906131902 | 69 | 77 | 0.0 | 0.0 | 0.00 | 0.00 | 0.00 | 93 | 1015.4 |
| 20260906130932 | 69 | 77 | 0.0 | 0.0 | 0.00 | 0.00 | 0.00 | 93 | 1015.4 |
| 20260906125902 | 69 | 77 | 0.0 | 0.0 | 0.00 | 0.00 | 0.00 | 93 | 1015.4 |
| 20260906124902 | 69 | 77 | 0.0 | 0.0 | 0.00 | 0.00 | 0.00 | 93 | 1015.4 |
| 20260906123902 | 69 | 77 | 0.0 | 0.0 | 0.00 | 0.00 | 0.00 | 93 | 1015.4 |
| 20260906122902 | 69 | 77 | 0.0 | 0.0 | 0.00 | 0.00 | 0.00 | 93 | 1015.4 |
| 20260906121902 | 69 | 77 | 0.0 | 0.0 | 0.00 | 0.00 | 0.00 | 93 | 1015.4 |
| 20260906120902 | 69 | 77 | 0.0 | 0.0 | 0.00 | 0.00 | 0.00 | 93 | 1015.4 |
| 20260906115902 | 69 | 77 | 0.0 | 0.0 | 0.00 | 0.00 | 0.00 | 93 | 1015.4 |
| 20260906114901 | 69 | 77 | 0.0 | 0.0 | 0.00 | 0.00 | 0.00 | 93 | 1015.4 |
| 20260906113902 | 69 | 77 | 0.0 | 0.0 | 0.00 | 0.00 | 0.00 | 93 | 1015.4 |
| 20260906112902 | 69 | 77 | 0.0 | 0.0 | 0.00 | 0.00 | 0.00 | 93 | 1015.4 |
| 20260906111901 | 69 | 77 | 0.0 | 0.0 | 0.00 | 0.00 | 0.00 | 93 | 1015.4 |
| 20260906110901 | 69 | 77 | 0.0 | 0.0 | 0.00 | 0.00 | 0.00 | 93 | 1015.4 |
| 20260906105902 | 69 | 71 | 0.0 | 0.0 | 0.00 | 0.00 | 0.00 | 93 | 1015.4 |
| 20260906104902 | 69 | 83 | 0.0 | 1.0 | 0.00 | 0.00 | 0.00 | 93 | 1015.3 |
| 20260906103902 | 69 | 71 | 0.0 | 2.0 | 0.00 | 0.00 | 0.00 | 93 | 1015.2 |
| 20260906102902 | 69 | 159 | 1.0 | 2.0 | 0.00 | 0.00 | 0.00 | 93 | 1015.2 |
| 20260906101902 | 70 | 129 | 1.0 | 4.0 | 0.00 | 0.00 | 0.00 | 93 | 1015.1 |
| 20260906100902 | 70 | 77 | 0.0 | 0.0 | 0.00 | 0.00 | 0.00 | 93 | 1015.0 |
| 20260906095902 | 70 | 79 | 1.0 | 2.0 | 0.00 | 0.00 | 0.00 | 93 | 1014.9 |
| 20260906094932 | 70 | 78 | 1.0 | 2.0 | 0.00 | 0.00 | 0.00 | 93 | 1014.6 |
| 20260906093932 | 70 | 87 | 0.0 | 2.0 | 0.00 | 0.00 | 0.00 | 93 | 1014.5 |
| 20260906092932 | 70 | 70 | 0.0 | 1.0 | 0.00 | 0.00 | 0.00 | 93 | 1014.5 |
| 20260906091932 | 70 | 110 | 1.0 | 3.0 | 0.00 | 0.00 | 0.00 | 93 | 1014.5 |
| 20260906090902 | 70 | 98 | 2.0 | 4.0 | 0.00 | 0.00 | 0.00 | 93 | 1014.3 |
| 20260906085932 | 70 | 69 | 1.0 | 2.0 | 0.00 | 0.00 | 0.00 | 92 | 1014.4 |
| 20260906084932 | 70 | 101 | 1.0 | 3.0 | 0.00 | 0.00 | 0.00 | 92 | 1014.4 |
| 20260906083902 | 70 | 60 | 1.0 | 2.0 | 0.00 | 0.00 | 0.00 | 92 | 1014.4 |
| 20260906082902 | 70 | 67 | 2.0 | 3.0 | 0.00 | 0.00 | 0.00 | 92 | 1014.5 |
| 20260906081903 | 70 | 75 | 1.0 | 2.0 | 0.00 | 0.00 | 0.00 | 92 | 1014.5 |
| 20260906080901 | 70 | 75 | 2.0 | 3.0 | 0.00 | 0.00 | 0.00 | 92 | 1014.4 |
| 20260906075902 | 71 | 74 | 1.0 | 3.0 | 0.00 | 0.00 | 0.00 | 91 | 1014.6 |
| 20260906074902 | 71 | 70 | 1.0 | 2.0 | 0.00 | 0.00 | 0.00 | 91 | 1014.7 |
| 20260906073932 | 71 | 80 | 0.0 | 0.0 | 0.00 | 0.00 | 0.00 | 90 | 1014.6 |
| 20260906072932 | 71 | 76 | 0.0 | 1.0 | 0.00 | 0.00 | 0.00 | 90 | 1014.7 |
| 20260906071902 | 71 | 86 | 0.0 | 1.0 | 0.00 | 0.00 | 0.00 | 90 | 1014.8 |
| 20260906070902 | 72 | 97 | 0.0 | 2.0 | 0.00 | 0.00 | 0.00 | 89 | 1014.8 |
| 20260906065932 | 72 | 68 | 1.0 | 2.0 | 0.00 | 0.00 | 0.00 | 89 | 1014.7 |
| 20260906065003 | 72 | 73 | 2.0 | 3.0 | 0.00 | 0.00 | 0.00 | 89 | 1014.7 |
| 20260906063901 | 72 | 75 | 2.0 | 3.0 | 0.00 | 0.00 | 0.00 | 88 | 1014.9 |
| 20260906062902 | 72 | 74 | 3.0 | 4.0 | 0.00 | 0.00 | 0.00 | 88 | 1014.8 |
| 20260906061902 | 72 | 78 | 2.0 | 3.0 | 0.00 | 0.00 | 0.00 | 88 | 1014.9 |
| 20260906060902 | 73 | 84 | 1.0 | 2.0 | 0.00 | 0.00 | 0.00 | 87 | 1015.0 |
| 20260906055902 | 73 | 75 | 1.0 | 2.0 | 0.00 | 0.00 | 0.00 | 87 | 1015.0 |
| 20260906054902 | 73 | 69 | 2.0 | 3.0 | 0.00 | 0.00 | 0.00 | 87 | 1014.9 |
| 20260906053902 | 73 | 78 | 0.0 | 0.0 | 0.00 | 0.00 | 0.00 | 86 | 1014.9 |
| 20260906052903 | 74 | 71 | 0.0 | 0.0 | 0.00 | 0.00 | 0.00 | 86 | 1014.8 |
| 20260906051902 | 74 | 77 | 0.0 | 2.0 | 0.00 | 0.00 | 0.00 | 86 | 1014.9 |
| 20260906050902 | 74 | 75 | 0.0 | 0.0 | 0.00 | 0.00 | 0.00 | 85 | 1014.9 |
| 20260906045902 | 74 | 78 | 0.0 | 0.0 | 0.00 | 0.00 | 0.00 | 85 | 1014.9 |
| 20260906044902 | 74 | 82 | 0.0 | 1.0 | 0.00 | 0.00 | 0.00 | 85 | 1015.1 |
| 20260906043902 | 74 | 93 | 0.0 | 0.0 | 0.00 | 0.00 | 0.00 | 85 | 1015.1 |
| 20260906042902 | 74 | 121 | 0.0 | 0.0 | 0.00 | 0.00 | 0.00 | 85 | 1015.1 |
| 20260906041902 | 74 | 121 | 0.0 | 0.0 | 0.00 | 0.00 | 0.00 | 85 | 1015.1 |
| 20260906040902 | 74 | 121 | 0.0 | 0.0 | 0.00 | 0.00 | 0.00 | 85 | 1015.2 |
| 20260906035902 | 74 | 92 | 0.0 | 0.0 | 0.00 | 0.00 | 0.00 | 85 | 1015.2 |
| 20260906034902 | 74 | 80 | 0.0 | 0.0 | 0.00 | 0.00 | 0.00 | 85 | 1015.1 |
| 20260906033902 | 74 | 80 | 0.0 | 0.0 | 0.00 | 0.00 | 0.00 | 85 | 1015.2 |
| 20260906032902 | 74 | 80 | 0.0 | 0.0 | 0.00 | 0.00 | 0.00 | 85 | 1015.2 |
| 20260906031902 | 74 | 80 | 0.0 | 0.0 | 0.00 | 0.00 | 0.00 | 85 | 1015.2 |
| 20260906030932 | 74 | 229 | 0.0 | 0.0 | 0.00 | 0.00 | 0.00 | 84 | 1015.3 |
| 20260906025902 | 74 | 229 | 0.0 | 0.0 | 0.00 | 0.00 | 0.00 | 84 | 1015.4 |
| 20260906024902 | 74 | 229 | 0.0 | 0.0 | 0.00 | 0.00 | 0.00 | 83 | 1015.1 |
| 20260906023902 | 74 | 229 | 0.0 | 0.0 | 0.00 | 0.00 | 0.00 | 82 | 1014.7 |
| 20260906022902 | 75 | 229 | 0.0 | 0.0 | 0.00 | 0.00 | 0.00 | 82 | 1014.8 |
| 20260906021902 | 75 | 229 | 0.0 | 0.0 | 0.00 | 0.00 | 0.00 | 81 | 1014.6 |
| 20260906020902 | 75 | 229 | 0.0 | 0.0 | 0.00 | 0.00 | 0.00 | 80 | 1014.4 |
| 20260906015902 | 76 | 153 | 0.0 | 0.0 | 0.00 | 0.00 | 0.00 | 79 | 1014.0 |
| 20260906014902 | 76 | 91 | 0.0 | 0.0 | 0.00 | 0.00 | 0.00 | 79 | 1013.8 |
| 20260906013902 | 76 | 57 | 0.0 | 0.0 | 0.00 | 0.00 | 0.00 | 78 | 1013.5 |
| 20260906012902 | 77 | 98 | 0.0 | 0.0 | 0.00 | 0.00 | 0.00 | 77 | 1013.3 |
| 20260906011902 | 77 | 123 | 1.0 | 2.0 | 0.00 | 0.00 | 0.00 | 77 | 1013.4 |
| 20260906010902 | 78 | 152 | 1.0 | 3.0 | 0.00 | 0.00 | 0.00 | 76 | 1013.2 |
| 20260906005902 | 78 | 82 | 1.0 | 2.0 | 0.00 | 0.00 | 0.00 | 75 | 1012.9 |
| 20260906004902 | 79 | 105 | 2.0 | 4.0 | 0.00 | 0.00 | 0.00 | 75 | 1012.8 |
| 20260906003902 | 79 | 95 | 2.0 | 4.0 | 0.00 | 0.00 | 0.00 | 74 | 1012.6 |
| 20260906002932 | 80 | 94 | 1.0 | 4.0 | 0.00 | 0.00 | 0.00 | 73 | 1012.8 |
| 20260906001902 | 80 | 73 | 3.0 | 7.0 | 0.00 | 0.00 | 0.00 | 73 | 1012.7 |
| 20260906000901 | 81 | 93 | 1.0 | 4.0 | 0.00 | 0.00 | 0.00 | 71 | 1012.7 |
| 20260905235902 | 82 | 131 | 1.0 | 3.0 | 0.00 | 0.00 | 0.00 | 70 | 1012.7 |
| 20260905234903 | 82 | 63 | 4.0 | 7.0 | 0.00 | 0.00 | 0.00 | 69 | 1012.4 |
| 20260905233901 | 82 | 70 | 3.0 | 5.0 | 0.00 | 0.00 | 0.00 | 69 | 1012.4 |
| 20260905232902 | 83 | 54 | 2.0 | 4.0 | 0.00 | 0.00 | 0.00 | 68 | 1012.2 |
| 20260905231902 | 83 | 72 | 4.0 | 7.0 | 0.00 | 0.00 | 0.00 | 67 | 1012.1 |
| 20260905231002 | 83 | 63 | 7.0 | 14.0 | 0.00 | 0.00 | 0.00 | 66 | 1011.9 |
| 20260905225931 | 84 | 71 | 8.0 | 12.0 | 0.00 | 0.00 | 0.00 | 66 | 1012.0 |
| 20260905224902 | 84 | 78 | 6.0 | 12.0 | 0.00 | 0.00 | 0.00 | 66 | 1012.2 |
| 20260905223932 | 84 | 71 | 7.0 | 10.0 | 0.00 | 0.00 | 0.00 | 66 | 1012.0 |
| 20260905222902 | 84 | 94 | 4.0 | 7.0 | 0.00 | 0.00 | 0.00 | 65 | 1012.1 |
| 20260905221902 | 85 | 59 | 5.0 | 8.0 | 0.00 | 0.00 | 0.00 | 65 | 1012.0 |
| 20260905220902 | 85 | 63 | 6.0 | 9.0 | 0.00 | 0.00 | 0.00 | 64 | 1011.7 |
| 20260905215902 | 85 | 85 | 8.0 | 14.0 | 0.00 | 0.00 | 0.00 | 64 | 1011.9 |
| 20260905214902 | 85 | 77 | 8.0 | 13.0 | 0.00 | 0.00 | 0.00 | 65 | 1012.0 |